Regional Weather Roundup
Issued by NWS Goodland, KS

Home | Current Version | Previous Version | Text Only | Print | Product List | Glossary On
Versions: 1 2 3 4 5 6 7 8 9 10 11 12 13 14 15 16 17 18 19 20 21 22 23 24 25 26 27 28 29 30 31 32 33 34 35 36 37 38 39 40 41 42 43 44 45 46 47 48 49 50
000
ASUS43 KGLD 191008
RWRGLD

GOODLAND FORECAST AREA HOURLY WEATHER ROUNDUP
NATIONAL WEATHER SERVICE GOODLAND KS
300 AM MST MON FEB 19 2018

...OFFICIAL OBSERVATIONS...

CITY           SKY/WX    TMP DP  RH WIND       PRES   REMARKS
GOODLAND KS    CLOUDY    17  14  88 N20G35    29.71S WCI   1
HILL CITY KS   CLOUDY    24  22  91 N29G38    29.73R WCI   7
IMPERIAL NEB   FLURRIES  14  10  84 N18       29.79R WCI  -3
MCCOOK NEB     LGT SNOW  18  15  88 N21       29.78R FOG     WCI   1
AKRON CO       LGT SNOW  10   8  92 N20       29.71S FOG     WCI  -9
BURLINGTON CO  LGT SNOW  16  14  92 N21G30    29.68F FOG     WCI  -1
LIMON CO       LGT SNOW  13  12  96 N16       29.64R FOG     WCI  -3
$$

...UNOFFICIAL OBSERVATIONS...

CITY           SKY/WX    TMP DP  RH WIND       PRES   REMARKS
COLBY KS       CLOUDY    19  19 100 N22G28    29.74S WCI   3
LENORA KS        N/A     21  32 100 CALM        N/A
NORTON KS      CLOUDY    19  16  86 N21       29.73  FOG     WCI   3
SHARON SPRINGS   N/A     19  17  90 N20G29      N/A  WCI   3
TRENTON NEB      N/A     15  32 100 N13         N/A  WCI   1
KIT CARSON CO    N/A     16  13  87 MISG        N/A
$$




USA.gov is the U.S. government's official web portal to all federal, state and local government web resources and services.